Starlink 3226

operational
NORAD ID: 49740 Int'l Des: 2021-115 Owner: SPXS Country: US Constellation: starlink
LEOCIRCULAR

Über Starlink 3226

Beschreibung wird geladen...

Live-Position

3D-Globus wird geladen...

Nächste Überflüge

Höhenverlauf

Altitude vs Time

uPlot chart will show altitude changes over time

Zweizeiliger Elementsatz

1 49740U 21115S 25349.89343140 .00000090 00000-0 23751-4 0 9990
2 49740 53.2159 165.2678 0001390 86.3739 273.7412 15.08841596222880
Epoch: 15. Dez. 2025 • Age: 24 hours

Aktueller Status

Höhe 544.9 km
Geschwindigkeit 7.60 km/s
Subsatellitenpunkt 51.06°N, 177.59°E
Startdatum 2. Dez. 2021
Alter 4 years
Typ internet

Technische Details

Klassifizierung Payload
Masse 290.00 kg
Trockenmasse 270.00 kg
Gesamtmasse 290.00 kg
Länge 0.20 m
Durchmesser 2.80 m
Spannweite 9.00 m
Form Box + pan
Hersteller SPXS
Bus-Typ Starlink
Phasenstatus In Orbit
Besitzer/Staat SPXS/US

Große Konstellationen

Loading constellations...